SQ7FZR-13 Weather Reports


time (UTC)temp
C
wind
direction
speed
KPH
gust
KPH
rain 1hr
cm
rain 24hr
cm
rain mn
cm
humidity
%
barometer
mb
20260506141041 29 162 4.8 8.0 0.00 0.00 0.00 33 1006.8
20260506134941 28 181 8.0 14.5 0.00 0.00 0.00 35 1006.7
20260506134242 27 181 3.2 14.5 0.00 0.00 0.00 35 1006.8
20260506133541 27 181 0.0 3.2 0.00 0.00 0.00 35 1006.8
20260506132841 27 45 1.6 4.8 0.00 0.00 0.00 35 1006.7
20260506132141 28 24 3.2 6.4 0.00 0.00 0.00 35 1006.7
20260506131441 27 182 6.4 12.9 0.00 0.00 0.00 35 1006.7
20260506130741 27 172 8.0 12.9 0.00 0.00 0.00 36 1006.5
20260506130041 27 73 4.8 12.9 0.00 0.00 0.00 36 1006.7
20260506125341 27 140 1.6 6.4 0.00 0.00 0.00 36 1006.7
20260506124641 27 197 6.4 12.9 0.00 0.00 0.00 36 1006.7
20260506123241 26 197 3.2 6.4 0.00 0.00 0.00 38 1006.8
20260506121841 27 189 9.7 14.5 0.00 0.00 0.00 36 1006.8
20260506121141 27 185 8.0 14.5 0.00 0.00 0.00 36 1006.9
20260506120441 27 174 6.4 19.3 0.00 0.00 0.00 36 1006.7
20260506115741 27 166 6.4 19.3 0.00 0.00 0.00 36 1006.8
20260506115041 26 203 0.0 0.0 0.00 0.00 0.00 36 1006.7
20260506114341 26 191 3.2 9.7 0.00 0.00 0.00 36 1006.7
20260506113641 27 201 8.0 9.7 0.00 0.00 0.00 36 1006.7
20260506112941 27 170 8.0 12.9 0.00 0.00 0.00 36 1006.7
20260506112241 27 177 11.3 16.1 0.00 0.00 0.00 36 1006.6
20260506111541 27 191 6.4 16.1 0.00 0.00 0.00 36 1006.6
20260506110841 26 181 4.8 11.3 0.00 0.00 0.00 36 1006.4
20260506110141 26 181 3.2 8.0 0.00 0.00 0.00 36 1006.4
20260506105441 26 181 6.4 8.0 0.00 0.00 0.00 37 1006.9
20260506104741 25 182 6.4 8.0 0.00 0.00 0.00 38 1006.5
20260506104041 25 163 8.0 14.5 0.00 0.00 0.00 38 1006.6
20260506103341 24 132 8.0 14.5 0.00 0.00 0.00 38 1006.6
20260506102642 24 172 4.8 11.3 0.00 0.00 0.00 38 1006.8
20260506101941 24 171 3.2 11.3 0.00 0.00 0.00 38 1006.6
20260506100541 23 189 9.7 12.9 0.00 0.00 0.00 38 1006.5
20260506095841 23 174 11.3 17.7 0.00 0.00 0.00 39 1006.6
20260506095141 23 181 4.8 17.7 0.00 0.00 0.00 38 1006.6
20260506093741 23 188 4.8 9.7 0.00 0.00 0.00 38 1006.7
20260506092341 23 182 8.0 14.5 0.00 0.00 0.00 38 1006.6
20260506091641 23 192 8.0 14.5 0.00 0.00 0.00 39 1006.6
20260506090940 22 201 4.8 9.7 0.00 0.00 0.00 39 1006.6
20260506085541 22 168 1.6 3.2 0.00 0.00 0.00 39 1006.6
20260506084841 22 156 0.0 8.0 0.00 0.00 0.00 40 1006.6
20260506084141 22 151 4.8 8.0 0.00 0.00 0.00 40 1006.7
20260506083441 22 136 1.6 8.0 0.00 0.00 0.00 40 1006.6
20260506082740 21 181 4.8 9.7 0.00 0.00 0.00 41 1006.5
20260506082040 21 188 8.0 12.9 0.00 0.00 0.00 41 1006.5
20260506081341 21 181 6.4 12.9 0.00 0.00 0.00 42 1006.4
20260506080640 21 181 1.6 6.4 0.00 0.00 0.00 43 1006.4
20260506073140 20 172 1.6 4.8 0.00 0.00 0.00 44 1006.8
20260506072440 20 181 1.6 4.8 0.00 0.00 0.00 44 1006.8
20260506071740 20 175 4.8 9.7 0.00 0.00 0.00 44 1006.8
20260506071040 20 165 4.8 9.7 0.00 0.00 0.00 45 1006.8
20260506070341 19 181 1.6 6.4 0.00 0.00 0.00 45 1006.8
20260506062140 17 0 0.0 0.0 0.00 0.00 0.00 48 1007.0
20260506061440 17 0 0.0 0.0 0.00 0.00 0.00 48 1006.9
20260506060740 17 0 0.0 0.0 0.00 0.00 0.00 49 1006.9
20260506051140 15 0 0.0 0.0 0.00 0.00 0.00 54 1006.9
20260506050440 14 0 0.0 0.0 0.00 0.00 0.00 55 1006.9
20260506045040 13 0 0.0 0.0 0.00 0.00 0.00 57 1007.2
20260506044340 13 0 0.0 0.0 0.00 0.00 0.00 58 1007.2
20260506042940 13 0 0.0 0.0 0.00 0.00 0.00 60 1007.3
20260506041541 12 0 0.0 0.0 0.00 0.00 0.00 61 1007.3
20260506040840 12 0 0.0 0.0 0.00 0.00 0.00 61 1007.1
20260506035544 12 0 0.0 0.0 0.00 0.00 0.00 61 1007.3
20260506034843 12 0 0.0 0.0 0.00 0.00 0.00 61 1007.2
20260506034144 12 0 0.0 0.0 0.00 0.00 0.00 61 1007.2
20260506033443 12 0 0.0 0.0 0.00 0.00 0.00 61 1007.3
20260506032043 12 0 0.0 0.0 0.00 0.00 0.00 60 1007.1
20260506031343 12 0 0.0 0.0 0.00 0.00 0.00 60 1007.2
20260506030643 12 0 0.0 0.0 0.00 0.00 0.00 59 1007.3
20260506025943 12 0 0.0 0.0 0.00 0.00 0.00 59 1007.3
20260506024543 12 0 0.0 0.0 0.00 0.00 0.00 59 1007.2
20260506023143 13 0 0.0 0.0 0.00 0.00 0.00 58 1007.2
20260506022443 13 0 0.0 0.0 0.00 0.00 0.00 58 1007.3
20260506021743 13 0 0.0 0.0 0.00 0.00 0.00 57 1007.3
20260506021043 13 0 0.0 0.0 0.00 0.00 0.00 57 1007.3
20260506020343 13 0 0.0 0.0 0.00 0.00 0.00 57 1007.3
20260506015643 13 0 0.0 0.0 0.00 0.00 0.00 56 1007.4
20260506014943 13 0 0.0 0.0 0.00 0.00 0.00 55 1007.4
20260506013543 13 0 0.0 0.0 0.00 0.00 0.00 54 1007.5
20260506012843 13 0 0.0 0.0 0.00 0.00 0.00 54 1007.6
20260506012143 13 0 0.0 0.0 0.00 0.00 0.00 53 1007.5
20260506010743 14 0 0.0 0.0 0.00 0.00 0.00 52 1007.3
20260506010043 15 0 0.0 0.0 0.00 0.00 0.00 51 1007.3
20260506004643 15 0 0.0 0.0 0.00 0.00 0.00 50 1007.3
20260506003943 15 0 0.0 0.0 0.00 0.00 0.00 49 1007.4
20260506003243 15 0 0.0 0.0 0.00 0.00 0.00 49 1007.3
20260506002543 15 0 0.0 0.0 0.00 0.00 0.00 48 1007.4
20260506001843 16 0 0.0 0.0 0.00 0.00 0.00 47 1007.4
20260506001143 16 0 0.0 0.0 0.00 0.00 0.00 47 1007.3
20260506000445 16 181 1.6 3.2 0.00 0.00 0.00 46 1007.4
20260505235743 16 181 1.6 3.2 0.00 0.00 0.00 46 1007.5
20260505235043 16 181 0.0 1.6 0.00 0.00 0.00 46 1007.6
20260505234343 16 181 0.0 1.6 0.00 0.00 0.00 46 1007.6
20260505233643 16 0 0.0 0.0 0.00 0.00 0.00 46 1007.4
20260505232943 16 0 0.0 0.0 0.00 0.00 0.00 46 1007.5
20260505232243 16 181 0.0 3.2 0.00 0.00 0.00 46 1007.6
20260505231543 16 181 1.6 6.4 0.00 0.00 0.00 45 1007.4
20260505230843 16 0 0.0 0.0 0.00 0.00 0.00 45 1007.4
20260505230143 16 0 0.0 0.0 0.00 0.00 0.00 45 1007.5
20260505225443 17 0 0.0 0.0 0.00 0.00 0.00 45 1007.5
20260505224043 17 181 0.0 3.2 0.00 0.00 0.00 44 1007.5
20260505223343 17 0 0.0 0.0 0.00 0.00 0.00 44 1007.5
20260505222643 17 0 0.0 0.0 0.00 0.00 0.00 44 1007.5
20260505215843 17 0 0.0 0.0 0.00 0.00 0.00 43 1007.6
20260505215143 17 0 0.0 0.0 0.00 0.00 0.00 42 1007.6
20260505214443 18 0 0.0 0.0 0.00 0.00 0.00 42 1007.5
20260505213743 18 0 0.0 0.0 0.00 0.00 0.00 42 1007.5
20260505212343 18 0 0.0 0.0 0.00 0.00 0.00 41 1007.6
20260505211643 18 0 0.0 0.0 0.00 0.00 0.00 41 1007.6
20260505210943 18 181 0.0 4.8 0.00 0.00 0.00 41 1007.4
20260505205543 18 0 0.0 0.0 0.00 0.00 0.00 41 1007.4
20260505204843 18 0 0.0 0.0 0.00 0.00 0.00 42 1007.3
20260505203443 18 0 0.0 0.0 0.00 0.00 0.00 43 1007.4
20260505202743 18 0 0.0 0.0 0.00 0.00 0.00 43 1007.4
20260505201343 18 0 0.0 0.0 0.00 0.00 0.00 44 1007.3
20260505200642 18 0 0.0 0.0 0.00 0.00 0.00 44 1007.3
20260505195942 18 0 0.0 0.0 0.00 0.00 0.00 43 1007.2
20260505195242 18 0 0.0 0.0 0.00 0.00 0.00 41 1007.2
20260505194543 18 0 0.0 0.0 0.00 0.00 0.00 42 1007.1
20260505193842 19 0 0.0 0.0 0.00 0.00 0.00 41 1007.2
20260505193142 19 0 0.0 0.0 0.00 0.00 0.00 40 1007.3
20260505192442 20 0 0.0 0.0 0.00 0.00 0.00 41 1007.2
20260505191743 20 0 0.0 0.0 0.00 0.00 0.00 39 1007.2
20260505191042 20 0 0.0 0.0 0.00 0.00 0.00 38 1007.2
20260505190342 20 0 0.0 0.0 0.00 0.00 0.00 38 1007.3
20260505185643 20 0 0.0 0.0 0.00 0.00 0.00 36 1007.4
20260505184942 21 0 0.0 0.0 0.00 0.00 0.00 36 1007.2
20260505184242 21 0 0.0 0.0 0.00 0.00 0.00 35 1007.2
20260505183543 21 0 0.0 0.0 0.00 0.00 0.00 35 1007.3
20260505182842 21 0 0.0 0.0 0.00 0.00 0.00 35 1007.3
20260505182142 22 0 0.0 0.0 0.00 0.00 0.00 34 1007.2
20260505181443 22 0 0.0 0.0 0.00 0.00 0.00 33 1007.2
20260505180742 22 0 0.0 0.0 0.00 0.00 0.00 33 1007.2
20260505180042 23 0 0.0 0.0 0.00 0.00 0.00 33 1007.2
20260505175342 23 0 0.0 0.0 0.00 0.00 0.00 32 1007.2
20260505174642 23 0 0.0 0.0 0.00 0.00 0.00 31 1007.2
20260505173942 24 0 0.0 0.0 0.00 0.00 0.00 31 1007.3
20260505173242 24 0 0.0 0.0 0.00 0.00 0.00 31 1007.2
20260505172542 25 0 0.0 0.0 0.00 0.00 0.00 31 1007.1
20260505171842 25 0 0.0 0.0 0.00 0.00 0.00 30 1007.3
20260505171142 25 0 0.0 0.0 0.00 0.00 0.00 30 1007.0
20260505170442 25 0 0.0 0.0 0.00 0.00 0.00 30 1007.2
20260505165742 25 0 0.0 0.0 0.00 0.00 0.00 29 1007.2
20260505164342 25 0 0.0 0.0 0.00 0.00 0.00 28 1007.2
20260505163642 26 0 0.0 0.0 0.00 0.00 0.00 27 1007.3
20260505162942 26 0 0.0 0.0 0.00 0.00 0.00 27 1007.3
20260505161542 26 0 0.0 0.0 0.00 0.00 0.00 26 1007.5
20260505160842 26 0 0.0 0.0 0.00 0.00 0.00 24 1007.6
20260505160142 26 181 1.6 6.4 0.00 0.00 0.00 24 1007.8
20260505153342 28 181 0.0 1.6 0.00 0.00 0.00 21 1007.8
20260505152642 28 0 0.0 0.0 0.00 0.00 0.00 21 1008.0
20260505151942 29 0 0.0 0.0 0.00 0.00 0.00 21 1008.0
20260505151242 30 181 1.6 4.8 0.00 0.00 0.00 21 1008.0
20260505150542 29 181 3.2 4.8 0.00 0.00 0.00 21 1008.1